GFSFLT1_850_dewp_000.txt.gz
Dewpoint
5 6 5 5 3 5 9 9 8 9 8 9 6 3 4 5 3 -1 -2 -2 -2 -1 -3 -5 -5 -5 -5 -3 -3 -3 -4 -6
6 6 6 6 8 8 7 7 8 8 7 4 4 5 5 1 -2 -2 -2 -4 -4 -5 -4 -4 -3 -3 -2 -3 -5 -7 -9 -11
8 9 10 10 9 7 5 5 5 4 4 4 3 -2 -3 -3 -3 -2 -3 -3 -3 -4 -4 -3 -2 -5 -7 -8 -9 -11 -13 -16
7 7 7 5 4 2 0 -1 -1 -2 -3 -2 -1 -1 -2 -2 -2 -2 -2 -3 -4 -3 -2 -4 -4 -3 -3 -5 -10 -12 -12 -12
3 3 0 -1 -2 -2 -1 -1 -0 -0 -0 0 1 1 0 -1 -2 -2 -3 -3 -2 -3 -3 -3 -4 -3 -6 -9 -9 -11 -9 -12
0 -1 -0 -1 0 0 0 1 0 1 1 1 1 0 -0 -1 -2 -3 -2 -2 -3 -6 -9 -5 -6 -5 -7 -7 -7 -7 -11 -10
0 1 1 1 1 1 1 1 1 1 1 1 0 -0 -1 -3 -3 -3 -2 -4 -5 -6 -6 -5 -5 -4 -5 -9 -11 -12 -12 -12
1 1 1 1 1 1 1 1 1 1 1 0 -0 -2 -4 -5 -3 -3 -2 -2 -3 -4 -4 -2 -2 -6 -7 -7 -8 -13 -14 -15
3 2 1 1 1 1 1 1 1 0 0 -1 -3 -5 -7 -7 -5 -6 -6 -7 -5 -4 -4 -2 -4 -5 -2 -8 -9 -14 -13 -14
2 2 2 1 1 1 -0 -2 -3 -3 -4 -5 -10 -13 -15 -17 -18 -20 -22 -23 -17 -4 -1 -2 -2 -3 -6 -5 -10 -13 -12 -13
1 1 1 1 0 -1 -3 -5 -5 -5 -7 -8 -10 -14 -17 -19 -21 -24 -32 -36 -6 -2 -3 -2 -3 -4 -6 -11 -12 -14 -13 -12
0 1 0 0 -1 -3 -4 -6 -6 -7 -9 -11 -15 -15 -17 -20 -24 -27 -27 -11 -4 -4 -5 -3 -5 -7 -12 -13 -15 -13 -12 -12
-0 -0 -1 -3 -5 -7 -6 -6 -7 -9 -11 -13 -12 -12 -14 -18 -21 -21 -19 -10 -5 -5 -5 -4 -5 -13 -14 -14 -14 -12 -13 -12
-0 -1 -4 -6 -7 -7 -7 -7 -9 -11 -12 -11 -12 -12 -13 -15 -16 -17 -15 -7 -5 -4 -3 -8 -14 -14 -14 -14 -14 -13 -11 -11
-2 -5 -6 -7 -7 -3 -8 -10 -11 -12 -11 -11 -10 -11 -12 -14 -15 -13 -12 -7 -4 -4 -9 -14 -14 -12 -14 -13 -13 -12 -11 -11
-4 -6 -7 -5 -5 -9 -10 -11 -11 -11 -11 -11 -10 -10 -11 -14 -11 -11 -11 -7 -6 -5 -11 -14 -11 -10 -13 -12 -12 -11 -11 -12
-5 -6 -6 -8 -10 -11 -11 -12 -12 -11 -11 -10 -9 -9 -13 -11 -10 -9 -8 -5 -6 -7 -12 -10 -8 -12 -12 -11 -12 -12 -13 -15
-6 -7 -8 -9 -10 -12 -12 -12 -11 -11 -10 -10 -9 -11 -10 -10 -9 -8 -6 -5 -6 -7 -8 -7 -8 -12 -11 -11 -12 -13 -17 -19
-7 -8 -8 -10 -12 -12 -12 -12 -11 -11 -10 -9 -11 -9 -8 -10 -10 -8 -6 -6 -7 -7 -7 -12 -11 -9 -10 -12 -13 -17 -20 -17

GFSFLT1_850_dewp_003.txt.gz
Dewpoint
4 4 4 3 3 5 8 9 8 6 7 7 7 4 3 3 -0 -4 -4 -3 -3 -3 -3 -4 -4 -4 -3 -3 -4 -6 -7 -9
6 6 6 5 5 6 6 7 8 6 5 5 4 3 3 1 -4 -5 -4 -3 -3 -2 -3 -3 -3 -3 -3 -3 -4 -4 -6 -7
8 8 8 8 8 8 7 5 3 3 3 3 3 -0 -5 -3 -3 -3 -2 -3 -2 -2 -3 -3 -3 -2 -2 -3 -4 -7 -8 -11
10 9 6 4 3 3 2 0 2 1 -2 -2 -1 -1 -2 -2 -2 -2 -2 -2 -3 -3 -2 -3 -5 -7 -7 -7 -7 -8 -6 -8
6 3 1 -0 -2 -2 -2 -1 -1 -1 -1 -0 -0 -0 -1 -1 -2 -3 -3 -3 -3 -3 -3 -6 -10 -6 -6 -5 -6 -8 -10 -6
1 -1 -2 -2 -1 -1 -0 0 -0 -0 -0 -0 -0 -1 -1 -2 -3 -3 -3 -3 -3 -4 -6 -9 -10 -5 -4 -4 -8 -11 -12 -14
-1 -1 -1 -0 0 0 0 0 1 0 0 0 -0 -1 -2 -3 -4 -6 -7 -7 -9 -12 -13 -10 -7 -5 -3 -5 -7 -4 -7 -10
1 0 0 0 0 -0 -0 0 1 1 1 -0 -1 -2 -5 -12 -16 -19 -22 -25 -26 -22 -11 -5 -4 -2 -4 -5 -6 -8 -11 -13
1 1 1 0 0 1 1 2 1 -1 -2 -5 -7 -11 -15 -19 -23 -28 -31 -33 -36 -38 -21 -4 -1 -3 -4 -3 -6 -7 -13 -12
2 2 1 1 2 2 1 -1 -3 -4 -5 -8 -11 -14 -15 -16 -19 -23 -28 -30 -29 -20 -7 -1 -1 -3 -3 -5 -9 -10 -12 -13
3 2 2 2 1 -1 -2 -3 -4 -5 -6 -10 -13 -14 -14 -16 -17 -22 -25 -26 -22 -6 -1 -1 -2 -4 -8 -11 -11 -13 -14 -12
2 1 1 0 -2 -2 -2 -4 -5 -6 -9 -12 -12 -12 -12 -12 -16 -22 -21 -19 -14 -4 -3 -4 -5 -5 -8 -12 -14 -14 -13 -13
1 1 0 -2 -3 -5 -5 -5 -6 -9 -11 -12 -11 -10 -10 -12 -17 -19 -16 -14 -9 -4 -4 -5 -6 -5 -13 -13 -14 -13 -13 -12
-0 -0 -2 -4 -7 -4 -3 -5 -8 -11 -11 -11 -11 -10 -10 -11 -16 -15 -12 -12 -10 -6 -5 -6 -11 -14 -13 -12 -13 -12 -12 -11
-0 -1 -2 -5 -7 -4 -7 -9 -11 -12 -11 -11 -11 -10 -10 -11 -15 -14 -11 -10 -9 -7 -5 -8 -10 -13 -10 -10 -13 -12 -12 -11
-0 -1 -3 -7 -3 -7 -10 -11 -12 -12 -11 -11 -10 -9 -9 -12 -14 -13 -10 -9 -6 -6 -5 -12 -11 -9 -9 -10 -12 -11 -12 -13
-0 -2 -5 -7 -7 -9 -11 -12 -12 -11 -11 -11 -10 -9 -9 -13 -12 -12 -10 -8 -5 -6 -7 -9 -10 -10 -6 -11 -10 -12 -12 -14
-0 -2 -5 -7 -8 -10 -12 -12 -12 -11 -11 -11 -10 -9 -11 -10 -10 -11 -10 -7 -6 -6 -7 -7 -7 -10 -10 -9 -11 -12 -15 -19
-1 -3 -5 -7 -8 -12 -12 -12 -12 -11 -11 -11 -9 -11 -10 -8 -9 -10 -10 -8 -8 -7 -7 -7 -9 -10 -9 -11 -11 -15 -19 -19

GFSFLT1_850_dewp_006.txt.gz
Dewpoint
8 6 7 8 10 10 7 7 6 7 6 5 7 6 3 3 -0 -3 -3 -2 -2 -3 -2 -2 -3 -1 -1 -1 -1 -1 -1 -1
8 7 9 10 10 9 7 6 6 8 4 5 5 4 3 2 -3 -3 -3 -2 -3 -2 -1 -1 -0 0 1 0 -1 -2 -2 -1
10 10 10 10 9 9 9 8 9 6 5 4 4 4 1 -4 -2 -2 -2 -2 -2 -2 -1 -0 0 -0 -0 1 -1 -3 -5 -3
10 11 11 11 10 10 9 8 5 4 2 -0 -2 -2 -1 0 0 -1 -1 -2 -2 -2 -1 -1 -0 -1 -1 -1 -2 -2 -4 -5
10 10 11 10 10 9 6 4 2 -2 -2 -0 -0 1 1 -1 -1 -0 -0 -1 -3 -3 -1 -3 -3 -3 -3 -2 -3 -3 -4 -7
8 7 7 6 3 2 1 -1 -1 -2 -1 -0 0 -0 -0 -0 -0 -1 -1 -2 -2 -3 -3 -2 -3 -4 -2 -1 -1 -4 -5 -5
3 3 2 1 2 -1 -1 -1 -1 -0 0 -0 -1 -3 -4 -5 -8 -9 -11 -13 -13 -12 -10 -4 -2 -2 -0 -1 -3 -3 -4 -6
0 0 0 1 2 0 0 0 0 0 1 -2 -5 -7 -9 -11 -14 -13 -15 -13 -13 -12 -13 -6 -2 -1 -1 -2 -3 -4 -5 -7
1 1 1 2 2 1 0 1 1 -1 -4 -5 -7 -11 -13 -12 -14 -15 -10 -10 -9 -7 -6 -3 -1 -1 -2 -2 -2 -4 -6 -8
2 2 2 2 1 1 1 -1 -3 -4 -5 -4 -11 -13 -12 -13 -12 -11 -11 -10 -8 -5 -3 -1 -1 -2 -2 -2 -5 -6 -7 -8
3 2 2 1 2 1 -1 -3 -5 -1 -2 -10 -12 -11 -10 -12 -14 -18 -17 -14 -8 -5 -3 -1 -2 -2 -3 -5 -7 -8 -9 -10
3 2 2 2 1 -1 -2 -4 -2 -4 -9 -12 -11 -10 -11 -12 -11 -14 -17 -19 -7 -6 -4 -3 -3 -5 -6 -5 -8 -9 -10 -10
3 2 3 2 -1 -3 -5 -4 -6 -8 -10 -11 -11 -10 -11 -10 -8 -8 -9 -8 -7 -5 -4 -4 -4 -5 -5 -8 -9 -9 -10 -10
2 1 1 -1 -3 -6 -4 -5 -6 -10 -11 -11 -11 -10 -10 -6 -7 -7 -7 -6 -5 -4 -4 -4 -5 -6 -8 -9 -9 -8 -9 -9
1 -0 -2 -3 -5 -4 -5 -6 -10 -11 -11 -11 -9 -10 -8 -6 -6 -7 -7 -6 -5 -4 -5 -4 -5 -7 -9 -8 -8 -8 -8 -8
-0 -2 -3 -5 -6 -4 -5 -9 -10 -11 -11 -10 -8 -9 -8 -6 -6 -7 -7 -5 -4 -4 -5 -6 -7 -8 -8 -9 -8 -7 -8 -9
-1 -2 -3 -4 -6 -5 -7 -10 -11 -11 -11 -10 -9 -9 -8 -6 -7 -7 -6 -6 -5 -5 -5 -5 -6 -7 -7 -8 -10 -9 -10 -11
-0 -1 -3 -5 -7 -7 -8 -10 -11 -11 -11 -11 -12 -12 -8 -7 -7 -7 -7 -7 -6 -6 -6 -5 -5 -5 -10 -10 -10 -11 -10 -12
-0 -1 -2 -5 -7 -7 -9 -11 -12 -12 -11 -11 -12 -8 -8 -8 -8 -7 -7 -7 -7 -7 -8 -6 -6 -8 -10 -10 -11 -10 -12 -13

GFSFLT1_850_dewp_009.txt.gz
Dewpoint
6 5 4 7 9 10 10 10 6 5 9 7 6 5 4 3 2 0 -2 1 -2 1 2 2 1 1 1 2 2 1 1 -1
7 6 6 7 10 10 10 10 9 9 7 6 5 5 4 3 2 -2 -1 -0 1 1 1 2 2 1 1 1 1 1 -0 -4
8 8 8 8 10 10 10 10 9 7 5 4 5 4 3 1 1 -0 1 2 1 1 2 2 1 1 0 0 0 -0 -3 -5
9 9 9 10 10 10 9 8 7 5 5 4 2 -1 1 2 1 1 2 2 2 1 0 0 0 -0 -2 -3 -3 -1 -3 -4
9 10 10 10 10 9 7 6 5 4 2 2 3 2 1 2 1 1 0 -0 -1 -3 -4 -4 -3 -2 -3 -3 -3 -1 -3 -5
9 9 10 9 9 8 6 5 2 2 3 3 2 2 1 -0 -2 -5 -8 -9 -11 -12 -11 -10 -7 -4 -2 -2 -1 -2 -3 -4
8 8 8 8 7 6 4 2 2 2 2 2 1 -2 -4 -6 -8 -10 -11 -12 -11 -10 -8 -7 -6 -5 -2 -2 -1 -2 -1 -2
4 5 3 3 4 4 3 2 2 2 2 -1 -5 -5 -7 -9 -9 -9 -9 -10 -10 -9 -6 -4 -4 -3 -2 -2 -2 -2 -2 -3
2 2 1 2 3 3 2 2 2 1 -3 -5 -3 -6 -7 -8 -7 -8 -9 -9 -9 -7 -5 -3 -3 -2 -2 -2 -2 -2 -2 -4
-0 0 1 2 3 3 2 2 0 -4 -4 1 0 -6 -12 -7 -6 -7 -9 -9 -9 -8 -5 -3 -2 -2 -2 -2 -3 -4 -6 -6
0 1 2 3 3 2 2 0 -4 -3 -0 -3 -5 -9 -6 -5 -6 -8 -9 -8 -7 -7 -6 -5 -4 -3 -2 -4 -5 -5 -5 -7
1 2 3 3 3 3 1 -3 -3 -3 -3 -5 -8 -5 -5 -5 -6 -7 -8 -7 -7 -7 -7 -5 -6 -6 -5 -5 -5 -5 -7 -8
1 3 3 2 3 2 -1 -3 -3 -4 -5 -5 -5 -5 -5 -6 -7 -7 -7 -7 -7 -6 -5 -5 -6 -6 -7 -7 -7 -8 -8 -7
2 3 3 2 2 -0 -2 -3 -4 -5 -6 -7 -6 -6 -6 -6 -6 -6 -7 -7 -7 -5 -6 -6 -6 -5 -5 -6 -8 -7 -6 -6
2 3 3 3 1 -1 -3 -3 -4 -6 -9 -9 -8 -6 -6 -6 -6 -6 -7 -7 -6 -5 -6 -6 -6 -6 -9 -9 -8 -8 -7 -7
2 2 2 2 0 -2 -3 -3 -4 -7 -9 -9 -8 -6 -5 -6 -6 -6 -7 -6 -6 -6 -6 -5 -4 -5 -7 -9 -7 -6 -8 -8
2 2 1 0 -1 -3 -3 -3 -6 -7 -8 -8 -7 -6 -7 -7 -6 -6 -6 -7 -7 -7 -7 -7 -4 -5 -6 -8 -10 -10 -10 -10
1 1 -0 -1 -2 -3 -3 -5 -7 -7 -8 -8 -7 -7 -8 -7 -7 -8 -8 -8 -7 -7 -8 -8 -5 -5 -6 -10 -10 -10 -9 -9
0 0 -0 -1 -2 -4 -4 -6 -7 -8 -8 -8 -8 -8 -8 -9 -9 -9 -9 -8 -8 -8 -8 -8 -7 -6 -7 -9 -10 -11 -8 -9

GFSFLT1_850_dewp_012.txt.gz
Dewpoint
3 3 6 9 9 9 10 10 7 6 8 7 6 5 4 3 3 1 2 0 -1 -1 2 2 2 2 2 2 1 1 1 1
5 4 5 9 10 9 10 10 7 7 9 6 5 4 4 3 1 -2 -1 -0 1 1 1 1 1 1 1 0 -1 -0 0 -0
6 5 5 7 10 10 10 10 9 9 6 5 5 4 3 2 1 1 0 0 -1 0 -0 -0 0 0 -1 -1 -2 -3 -2 -1
7 6 7 8 10 10 10 10 9 6 5 4 4 3 0 2 1 2 2 2 1 -0 -2 -3 -3 -5 -2 -2 -3 -3 -1 -1
7 9 9 9 10 10 9 9 6 5 3 2 2 2 2 2 1 1 -1 -3 -5 -8 -12 -12 -11 -10 -6 -3 -2 -2 -2 -2
8 9 9 9 9 9 8 7 6 4 2 2 2 2 1 1 -1 -5 -9 -12 -13 -12 -12 -14 -20 -17 -13 -5 -2 -1 -1 -2
8 9 9 9 10 8 7 5 3 3 3 2 2 1 -1 -5 -6 -9 -12 -13 -12 -11 -12 -17 -12 -7 -4 -3 -1 -1 -1 -3
8 9 9 9 8 7 5 3 3 3 2 1 1 -2 -2 -1 -4 -12 -20 -12 -11 -10 -15 -13 -13 -3 -2 -2 -1 -3 -6 -5
8 7 8 8 7 6 3 2 3 3 1 -0 -3 -0 1 -4 -9 -14 -21 -16 -14 -12 -11 -14 -4 -2 -2 -4 -4 -4 -4 -3
5 6 4 4 4 4 2 2 3 2 -1 -3 -2 0 -3 -9 -13 -16 -17 -18 -13 -11 -15 -10 -4 -3 -5 -4 -6 -4 -4 -5
3 3 1 2 3 4 2 2 2 -1 -3 -1 -0 -2 -5 -9 -12 -12 -17 -13 -15 -12 -9 -7 -6 -5 -3 -4 -4 -4 -4 -5
1 0 1 2 3 3 3 2 1 -3 -2 -1 -3 -3 -7 -9 -8 -9 -10 -9 -11 -8 -7 -6 -6 -6 -6 -6 -5 -7 -6 -6
1 0 1 2 3 3 3 2 -2 -3 -2 -3 -4 -5 -5 -5 -6 -6 -6 -8 -7 -7 -6 -5 -6 -6 -6 -6 -6 -7 -7 -7
1 1 2 3 3 3 3 2 -2 -2 -3 -4 -4 -5 -4 -5 -5 -6 -6 -6 -7 -7 -6 -5 -6 -6 -6 -6 -7 -8 -7 -6
1 1 3 3 3 3 3 0 -2 -2 -4 -5 -5 -5 -5 -5 -5 -6 -5 -6 -6 -6 -5 -6 -5 -6 -6 -8 -8 -8 -7 -6
1 1 3 3 3 3 2 -1 -2 -3 -4 -7 -8 -8 -6 -5 -6 -5 -5 -6 -6 -6 -7 -7 -6 -6 -4 -6 -7 -9 -11 -9
-0 1 3 3 3 3 1 -1 -2 -3 -5 -8 -8 -7 -6 -6 -6 -7 -6 -6 -7 -7 -7 -7 -7 -6 -5 -6 -6 -11 -13 -12
-1 1 2 3 2 2 1 -2 -2 -3 -6 -7 -7 -6 -6 -5 -8 -7 -7 -8 -8 -7 -7 -7 -8 -7 -7 -6 -7 -12 -10 -10
-1 0 1 1 1 1 -0 -2 -2 -5 -6 -7 -7 -7 -4 -7 -9 -9 -9 -9 -9 -8 -7 -8 -8 -7 -6 -6 -7 -9 -10 -10

GFSFLT1_850_dewp_015.txt.gz
Dewpoint
5 6 8 8 6 10 10 10 7 7 6 6 6 5 4 3 0 -3 -3 -3 -1 -1 -0 -0 -0 1 1 1 1 -3 -2 -0
3 5 7 8 8 9 10 8 8 6 7 5 5 3 2 -1 0 -2 -1 -1 -1 -1 -1 -0 -2 -4 -3 -2 -4 -2 -3 -4
3 6 8 9 9 9 9 8 8 6 9 5 4 3 2 1 -1 0 1 1 -1 -2 -3 -5 -5 -6 -8 -8 -5 -4 -6 -3
5 4 8 9 9 9 9 8 6 9 9 6 5 4 2 1 1 2 1 1 -1 -3 -6 -10 -13 -12 -11 -10 -6 -4 -2 -2
5 6 8 9 10 10 10 9 8 9 7 5 5 3 2 2 2 2 1 -2 -7 -13 -21 -25 -24 -25 -25 -20 -12 -6 -2 -2
7 7 7 9 10 10 10 10 9 5 5 4 2 1 3 2 1 1 -4 -5 -14 -20 -25 -25 -26 -27 -18 -9 -4 -2 -1 -1
7 7 8 8 9 10 9 9 8 5 3 2 1 2 3 2 1 -3 -1 -3 -14 -23 -25 -26 -27 -17 -7 -3 -2 -1 -1 -2
8 8 9 9 9 10 9 9 6 6 4 2 2 2 1 0 -2 0 -0 -9 -22 -27 -26 -27 -24 -11 -3 -3 -4 -6 -5 -5
8 9 9 9 9 10 8 6 6 5 2 2 2 2 -0 -1 0 -1 -9 -20 -24 -25 -26 -27 -14 -5 -3 -2 -5 -6 -6 -4
7 9 9 9 10 8 6 5 5 4 2 2 1 -1 -1 -0 -2 -9 -16 -21 -22 -20 -22 -22 -15 -6 -4 -3 -3 -5 -4 -4
8 9 9 9 9 8 6 4 3 2 2 1 -1 -1 -1 -2 -8 -13 -14 -15 -18 -20 -22 -12 -10 -12 -7 -6 -5 -5 -5 -7
6 7 7 7 6 5 4 2 2 2 2 0 -2 -1 -2 -5 -10 -9 -12 -15 -14 -16 -12 -9 -9 -7 -6 -6 -6 -6 -7 -7
4 4 4 3 2 2 3 3 2 2 2 -2 -2 -3 -4 -7 -7 -7 -8 -9 -10 -11 -10 -10 -8 -5 -5 -6 -7 -7 -6 -7
3 2 2 1 2 3 3 3 2 2 -0 -3 -2 -3 -4 -4 -5 -5 -6 -7 -8 -7 -10 -10 -6 -5 -5 -8 -7 -7 -8 -8
3 1 0 0 1 2 3 3 3 1 -2 -2 -2 -3 -5 -4 -4 -5 -6 -6 -6 -6 -8 -8 -6 -6 -6 -6 -6 -7 -7 -9
2 2 1 1 2 3 3 3 3 2 -2 -2 -4 -6 -5 -4 -5 -5 -4 -5 -5 -6 -7 -7 -7 -6 -6 -7 -6 -6 -6 -6
-3 -0 2 2 3 3 3 3 3 1 -2 -3 -5 -6 -5 -5 -4 -2 -6 -8 -8 -7 -8 -7 -7 -7 -7 -8 -7 -6 -6 -12
-3 -0 2 3 4 3 3 3 2 -0 -2 -3 -7 -6 -6 -4 -3 -2 -8 -7 -8 -8 -8 -8 -7 -7 -8 -8 -7 -7 -7 -9
-1 -1 -0 2 3 3 3 3 1 -2 -2 -5 -7 -6 -5 -3 -2 -6 -8 -9 -8 -9 -9 -8 -7 -7 -7 -7 -7 -8 -8 -8

GFSFLT1_850_dewp_021.txt.gz
Dewpoint
8 7 8 7 8 9 10 8 8 8 8 10 10 7 5 4 4 3 2 -1 -4 -4 -3 -3 -2 -4 -6 -10 -14 -14 -17 -14
9 7 7 8 8 9 8 7 8 9 10 10 7 5 5 4 2 -0 -3 -4 -3 -3 -3 -2 -4 -6 -10 -16 -20 -20 -19 -21
10 9 8 7 6 8 9 8 9 9 9 9 7 5 4 3 1 -1 -3 -3 -2 -2 -3 -3 -3 -4 -8 -19 -25 -26 -25 -17
9 9 9 8 9 6 4 7 7 8 8 8 6 5 3 2 1 -1 -2 -2 -1 -1 -3 -2 -3 -8 -19 -24 -27 -28 -22 -14
9 9 8 8 9 7 -0 2 6 8 9 8 6 5 3 1 -1 -2 -2 -1 1 -2 -3 -4 -7 -14 -24 -27 -27 -20 -12 -5
7 8 8 8 9 7 4 6 8 10 10 8 6 4 3 1 1 -1 0 1 1 -3 -5 -8 -15 -24 -26 -25 -16 -9 -4 -4
6 7 8 9 9 8 7 7 8 9 8 7 6 7 5 3 3 1 1 1 -0 -5 -8 -16 -23 -22 -11 -21 -11 -7 -5 -4
5 5 7 8 8 8 8 8 8 8 8 8 7 8 7 5 4 3 1 1 -4 -7 -13 -22 -6 1 -16 -13 -9 -5 -5 -6
3 5 5 5 6 7 8 9 9 9 9 9 7 9 8 5 4 2 1 -3 -6 -13 -21 -1 -3 -19 -17 -11 -8 -5 -4 -5
4 5 5 4 5 6 8 8 9 10 10 9 9 8 7 5 3 2 -1 -4 -9 -15 -0 -0 -18 -18 -19 -15 -12 -6 -5 -6
4 5 5 5 5 7 7 8 9 8 9 9 7 6 5 3 3 2 -3 -3 -11 -1 -7 -13 -11 -19 -18 -10 -11 -8 -8 -7
5 6 6 6 7 7 8 9 9 9 8 8 7 5 4 2 1 -2 -3 -8 -5 -6 -9 -10 -11 -11 -14 -16 -9 -7 -6 -6
5 6 7 8 8 8 9 9 8 8 8 7 6 5 4 2 -1 -1 -2 -6 -6 -4 -10 -7 -11 -15 -14 -12 -10 -8 -7 -8
6 6 7 7 8 8 9 8 7 8 7 6 5 5 4 1 -0 -0 -4 -6 -4 -7 -7 -9 -9 -6 -10 -10 -9 -7 -6 -7
4 7 7 8 8 9 9 8 8 7 6 5 5 5 2 1 1 -2 -4 -5 -3 -5 -6 -6 -4 -8 -8 -8 -7 -7 -6 -6
5 7 8 8 8 8 8 8 7 7 6 5 5 2 2 1 -1 -3 -4 -4 -5 -6 -6 -1 -6 -8 -7 -7 -7 -7 -7 -6
2 3 4 4 4 5 7 7 7 6 5 5 3 2 1 -1 -3 -4 -5 -5 -5 -6 -2 -1 -8 -7 -7 -7 -7 -7 -6 -6
-1 -1 -1 -1 -0 1 2 3 5 5 5 3 3 2 -0 -2 -4 -4 -4 -5 -4 -2 -1 -5 -9 -8 -8 -9 -8 -7 -6 -7
-2 -2 -2 -1 -1 -0 1 3 3 4 4 3 2 -0 -2 -3 -4 -4 -3 -1 -1 -1 -1 -8 -8 -9 -9 -9 -9 -7 -7 -7

GFSFLT1_850_dewp_024.txt.gz
Dewpoint
7 6 7 7 8 7 7 6 7 8 8 9 9 9 9 10 7 5 6 7 7 3 -3 -3 -3 -3 -5 -8 -12 -15 -16 -13
7 6 7 8 8 7 7 7 7 7 8 8 9 10 10 8 6 5 6 6 3 -3 -2 -2 -3 -5 -8 -13 -18 -22 -23 -21
8 7 8 8 6 7 7 8 6 7 8 8 9 9 7 5 5 4 4 2 -2 -2 -1 -2 -5 -7 -10 -16 -22 -25 -25 -21
8 9 8 7 5 4 5 6 8 8 8 9 9 9 6 5 3 1 -1 -2 -1 -1 -1 -3 -5 -9 -13 -19 -22 -20 -23 -17
8 8 8 8 7 6 6 6 7 7 8 9 9 9 6 5 3 2 0 -1 -0 -0 -0 -3 -6 -8 -16 -21 -14 -7 -19 -14
7 7 6 7 7 7 7 7 8 7 8 9 9 8 6 5 3 2 1 -0 0 0 -0 -5 -6 -11 -20 -4 2 -2 -15 -12
7 7 8 8 8 8 8 8 6 7 8 9 8 9 8 5 3 2 1 0 0 0 -1 -5 -7 -16 -11 1 0 -20 -18 -11
6 6 7 7 8 7 7 8 7 5 8 8 7 8 8 6 5 6 2 1 1 0 -3 -8 -17 -6 -1 -3 -13 -15 -14 -16
4 5 5 6 6 7 8 8 9 6 7 8 8 9 8 7 7 6 5 3 2 -0 -3 1 -5 -1 0 -4 -11 -22 -11 -7
2 3 4 5 5 6 6 7 8 8 8 7 7 8 8 8 7 5 5 3 1 -1 -3 -4 -4 -2 1 -17 -11 -10 -8 -7
0 2 3 4 4 4 6 6 7 7 8 7 7 9 8 9 8 6 4 2 0 -5 -5 -6 -5 -6 -15 -9 -11 -12 -8 -8
2 2 3 3 4 5 5 4 5 6 8 8 7 8 8 9 9 6 4 1 1 -3 -7 -6 -7 -11 -10 -15 -5 -9 -8 -7
3 3 3 3 3 4 5 5 6 7 7 7 6 6 8 8 6 5 2 1 -3 -7 -6 -7 -8 -11 -9 -3 -11 -10 -9 -9
1 3 4 4 6 6 6 6 6 6 6 6 6 8 8 6 5 4 2 -1 -5 -7 -6 -7 -8 -5 -1 -10 -10 -9 -9 -8
1 2 4 7 8 8 7 6 7 8 6 6 6 7 6 5 5 3 -0 -4 -6 -5 -6 -6 -6 -2 -3 -7 -8 -8 -8 -7
4 5 6 8 8 9 9 8 8 9 9 8 7 6 5 5 3 0 -3 -3 -6 -4 -5 -5 -1 -1 -4 -7 -7 -6 -7 -7
1 1 1 1 1 2 2 2 3 5 7 7 6 5 5 5 2 -3 -3 -5 -5 -5 -5 -2 -2 -0 -4 -7 -7 -7 -7 -7
-2 -2 -2 -2 -3 -3 -3 -1 1 4 5 6 5 5 4 4 -1 -3 -4 -5 -5 -4 -2 -2 -0 -2 -4 -7 -9 -8 -9 -9
-2 -1 -1 -1 -2 -2 -1 0 2 3 4 5 5 3 2 -1 -2 -3 -4 -4 -4 -2 -2 -1 -1 -3 -7 -10 -10 -10 -10 -9

GFSFLT1_850_dewp_027.txt.gz
Dewpoint
5 4 4 6 6 6 7 8 7 6 1 5 6 8 9 10 9 9 8 8 8 8 6 3 -2 -2 -3 -6 -11 -16 -18 -18
6 4 3 5 6 7 7 7 5 3 4 7 8 9 9 9 9 9 7 8 8 7 4 -2 -2 -2 -5 -8 -14 -19 -20 -17
7 6 6 5 6 7 7 7 6 6 7 8 8 9 9 8 10 8 7 7 7 6 1 -1 -2 -3 -6 -11 -19 -21 -16 -11
9 8 7 6 6 6 6 6 6 6 7 7 8 8 9 10 9 6 5 6 5 3 -0 -0 -2 -4 -8 -16 -22 -7 -1 -1
7 7 7 7 6 7 7 7 7 8 7 8 7 7 7 8 6 5 5 3 1 -1 -0 -0 -2 -6 -11 -19 -4 0 -1 -5
7 8 7 7 7 6 6 6 7 8 8 7 7 7 8 8 7 5 3 1 -0 -1 -1 -0 -1 -6 -10 -12 -0 0 1 1
7 7 8 8 8 7 7 6 7 7 7 7 7 9 8 9 7 5 3 2 1 -0 -0 0 -2 -6 -9 0 2 1 2 -4
7 7 6 7 7 8 7 8 8 8 8 8 6 9 9 9 8 6 5 4 5 1 0 0 -2 -7 -2 -1 -1 2 -2 -20
5 5 5 6 6 7 7 7 7 8 9 8 8 9 8 8 8 7 6 5 6 4 2 -0 -6 -6 0 -2 1 -5 -16 -7
2 3 4 4 5 5 6 7 8 7 7 8 7 6 6 7 8 7 5 5 5 3 1 -4 -6 3 -2 -3 -7 -9 -7 -9
-1 0 2 3 4 5 6 6 7 7 7 8 8 7 7 6 8 8 7 6 5 3 -1 -6 3 -5 -6 -4 -8 -8 -3 -12
0 0 1 2 4 5 5 5 5 7 7 7 8 7 7 6 7 9 9 7 6 4 -3 1 -6 -7 -5 -10 -8 -2 -5 -9
0 1 2 3 3 4 4 5 5 6 7 8 7 7 7 6 6 8 8 8 7 3 -2 -4 -8 -4 -9 -8 -3 -7 -11 -9
1 2 3 4 5 4 5 6 6 6 6 7 8 8 7 8 8 8 8 8 5 -3 -6 -8 -7 -7 -5 -2 -0 -6 -7 -9
2 3 5 6 7 7 7 7 7 8 8 8 9 9 9 9 8 7 6 5 2 -3 -8 -8 -7 -5 -1 -1 -0 -5 -8 -8
5 5 6 7 8 8 8 8 8 7 7 7 7 8 8 8 7 6 4 2 -1 -7 -7 -5 -6 -2 -1 -1 -2 -5 -6 -6
2 1 1 0 -0 -0 -1 -1 -1 -0 2 4 5 6 6 6 5 4 1 -2 -6 -7 -6 -5 -3 -2 -2 -0 -3 -5 -7 -8
-1 -2 -2 -2 -2 -2 -2 -2 -1 -0 1 3 4 5 5 4 3 3 1 -2 -5 -6 -6 -3 -2 -2 -2 -1 -2 -4 -8 -9
-1 -1 -1 -1 -1 -1 -1 -2 -1 1 3 4 4 4 4 3 3 1 -2 -4 -5 -3 -3 -1 -1 -2 -1 -1 -3 -6 -9 -11

GFSFLT1_850_dewp_030.txt.gz
Dewpoint
9 10 10 9 9 9 9 10 10 9 10 8 5 6 10 9 9 9 8 8 9 9 7 7 6 2 -2 -2 -5 -9 -5 -4
8 9 9 9 10 9 9 10 10 10 9 7 6 9 10 10 9 9 9 9 9 8 7 7 5 1 1 -4 -6 -10 -11 -9
7 8 8 8 9 10 10 10 10 10 9 6 7 9 10 9 9 8 9 8 7 7 7 7 2 1 -2 -4 -7 -10 -4 -3
7 8 8 8 8 9 9 9 10 10 9 7 9 9 9 8 8 8 8 8 7 7 7 6 -0 -1 -2 -4 -6 -12 -1 -0
7 9 9 9 9 9 9 9 10 10 10 9 9 8 9 8 8 7 8 6 6 7 7 5 -1 -1 -2 -4 -9 -7 -2 2
6 7 8 10 9 9 10 10 10 10 10 9 9 9 9 10 7 8 7 6 5 6 5 2 -1 -1 -2 -6 -11 -5 2 -0
5 6 8 8 10 10 10 10 10 10 10 7 8 9 10 9 8 7 7 6 5 4 2 0 -0 -1 -3 -9 -9 1 0 0
6 7 7 8 9 10 10 10 10 10 9 7 7 8 9 6 7 7 8 7 5 3 1 1 -0 0 -1 -9 -2 3 1 -1
5 6 7 8 9 10 10 9 10 10 8 6 7 7 7 7 6 8 9 8 6 5 2 5 1 -0 -4 -8 3 2 -1 -4
2 4 6 8 9 10 11 11 10 10 10 9 9 8 7 7 7 8 9 8 6 5 4 6 -0 -2 -10 0 2 -2 -9 -6
1 3 4 6 8 9 11 11 10 10 11 10 10 9 9 8 8 8 8 8 8 5 4 3 -0 1 -4 3 -3 -6 -2 -0
4 4 4 5 7 9 10 10 9 10 11 11 10 10 10 9 6 7 8 9 9 7 5 5 5 -3 1 -6 -9 -3 -3 -2
5 6 6 6 7 8 9 9 9 10 10 11 10 9 9 9 9 9 9 9 8 8 6 6 2 -3 -3 -9 -6 -3 -1 0
5 7 7 6 4 7 8 7 9 9 7 7 8 8 9 9 9 9 9 8 8 7 6 4 -2 -3 -9 -5 -6 -2 -0 -0
4 7 8 9 9 7 7 7 7 8 8 8 8 9 9 9 9 9 8 8 8 7 5 1 -2 -8 -7 -6 -3 -0 -0 -2
6 7 8 9 9 9 9 9 9 8 7 7 7 7 7 7 7 7 7 6 6 5 3 -3 -6 -8 -7 -2 -1 -1 -1 -2
5 5 5 4 5 6 3 2 1 1 1 2 3 5 5 5 5 5 5 4 2 -1 -4 -4 -7 -4 -2 -0 -1 -1 -2 -2
2 3 3 2 -1 -0 -1 -1 -0 1 2 3 4 4 4 4 4 3 2 -0 -2 -3 -5 -4 -3 -5 -2 -1 -1 -2 -1 -3
1 -0 -1 -1 -1 -2 -2 -2 -1 0 2 3 3 3 3 3 3 2 1 0 -1 -2 -3 -5 -6 -1 -1 -1 -1 -2 -2 -3

GFSFLT1_850_dewp_033.txt.gz
Dewpoint
7 7 8 8 9 9 9 9 9 8 8 8 7 5 7 7 10 10 11 10 9 9 8 8 6 6 5 4 3 -0 -1 -1
8 8 7 8 8 8 8 8 8 9 10 8 5 5 7 9 9 10 11 9 9 8 8 7 7 6 4 4 2 -1 -1 -3
6 8 8 8 8 9 8 8 8 8 8 7 5 5 6 9 9 10 10 10 8 7 8 7 7 5 4 3 -0 -0 -1 -0
5 6 7 8 8 8 8 8 9 9 8 7 5 5 7 8 10 10 11 9 9 9 8 7 7 5 5 0 -2 -2 -1 1
4 5 6 7 8 9 9 8 8 8 8 7 6 7 7 8 10 10 10 8 8 9 8 8 7 5 4 2 -0 -1 -3 1
3 5 5 6 7 7 8 8 8 8 9 8 7 8 8 8 9 10 9 10 9 9 8 7 6 5 2 0 -1 -3 -6 2
2 3 5 6 7 8 8 8 8 8 9 10 9 9 9 8 9 10 10 9 8 8 7 6 6 4 1 0 -1 -7 -4 2
1 2 4 5 7 9 9 9 8 9 9 10 10 10 10 9 10 10 9 8 7 7 8 7 5 4 1 3 1 1 1 3
2 2 2 4 6 8 10 9 9 9 9 10 10 11 10 10 10 9 8 7 8 8 5 8 7 4 3 4 0 2 0 4
2 2 3 4 5 7 9 10 9 10 9 10 10 10 10 11 10 9 5 4 6 7 9 7 5 3 4 3 2 -3 3 2
-0 1 3 4 5 6 9 10 10 10 10 10 11 11 11 10 10 8 7 7 8 8 8 6 3 3 4 4 3 -1 1 0
3 2 2 3 5 7 8 10 11 11 11 11 11 11 11 11 10 9 9 9 9 8 8 6 4 3 4 4 0 0 -1 -1
3 4 4 4 5 6 8 10 10 11 11 11 11 11 11 11 10 10 10 9 8 8 7 7 6 3 4 2 -1 -0 -2 -1
2 5 6 6 7 8 8 9 10 10 10 10 11 11 11 10 10 9 8 8 8 7 7 6 5 3 2 -1 -0 -3 -2 -2
-0 5 7 7 8 9 9 10 10 10 10 10 10 10 10 10 10 8 8 8 8 7 6 5 3 3 -1 -2 -4 -2 -2 -0
2 4 7 8 9 9 10 10 10 9 9 9 10 9 9 8 8 7 6 6 6 6 6 4 3 -1 -2 -3 -2 -1 -2 -1
5 7 8 8 9 9 9 8 8 7 7 7 7 7 6 6 6 5 6 5 5 4 3 2 0 -3 -4 -2 -3 -2 -1 -1
4 4 5 5 5 5 6 5 5 5 5 5 5 4 4 4 4 4 3 2 0 -1 -1 -2 -4 -4 -3 -4 -2 -2 -1 -1
3 3 3 3 3 3 3 3 3 3 3 3 3 3 3 2 2 2 1 0 -1 -2 -3 -4 -2 -1 -1 -2 -2 -1 -2 -2

GFSFLT1_850_dewp_036.txt.gz
Dewpoint
8 8 9 8 6 4 3 4 4 1 2 3 5 4 6 6 5 7 7 6 10 8 8 8 8 7 6 4 4 3 1 0
8 8 8 6 6 6 5 5 6 2 6 8 9 6 5 3 7 8 8 8 10 9 9 8 8 6 6 5 3 3 -1 -0
8 8 8 9 6 8 8 6 6 8 8 6 6 6 4 3 7 9 7 9 9 9 8 8 7 7 6 4 4 2 -1 -1
7 8 8 8 8 8 9 9 8 8 8 6 8 6 5 5 8 7 7 10 9 9 8 8 8 6 6 5 4 1 0 -0
6 7 8 8 8 8 8 8 7 8 8 8 8 6 4 6 8 8 8 9 10 9 9 8 8 7 6 5 5 1 -1 -0
4 5 7 8 8 8 8 8 8 8 7 8 8 6 5 5 8 9 9 10 9 8 9 9 8 8 6 5 4 3 0 -0
3 4 5 7 8 8 9 8 8 8 8 7 8 8 6 7 8 8 9 8 8 9 9 9 8 8 7 6 5 4 1 -1
3 4 5 5 6 7 8 8 9 9 8 9 9 8 8 7 8 9 10 9 8 8 8 8 7 7 7 6 7 3 2 -1
3 2 4 5 6 6 6 7 8 8 8 9 9 7 8 10 9 9 9 8 7 4 6 7 8 5 6 7 6 4 3 2
2 2 2 4 6 6 7 8 8 8 8 8 8 9 10 8 5 9 10 9 8 8 7 7 7 7 7 7 6 3 4 4
-0 2 2 2 4 7 7 8 9 9 9 9 9 10 10 7 6 10 9 7 8 9 8 8 8 8 8 6 4 3 4 2
1 1 1 2 3 4 7 9 10 9 9 9 10 9 9 10 9 10 8 9 9 9 9 8 8 7 6 4 3 3 3 1
1 3 2 2 3 5 7 8 9 10 10 10 9 10 10 11 9 10 11 10 9 9 8 8 7 7 6 4 2 3 1 1
1 4 5 4 4 5 6 7 10 10 10 10 10 10 11 8 10 10 10 9 8 8 7 7 7 6 5 3 2 2 1 0
-2 4 5 6 7 7 8 9 9 10 10 10 10 11 11 10 10 9 9 8 8 8 7 6 6 5 4 2 2 0 -1 -1
-2 3 6 7 8 9 9 10 10 10 10 10 11 10 10 9 9 8 7 7 7 7 6 6 5 4 3 2 1 0 -1 -1
0 2 7 8 9 9 10 10 10 10 10 9 9 9 8 7 7 6 6 6 5 5 5 4 4 3 2 -0 -1 -2 -2 -1
4 6 8 9 9 9 9 9 8 8 7 7 6 6 6 6 5 5 5 4 3 2 1 0 0 -0 -2 -3 -3 -3 -3 -2
5 6 6 7 7 6 6 6 5 5 4 4 4 4 3 3 3 3 3 1 0 -1 -2 -3 -4 -4 -3 -2 -1 -2 -2 -2

GFSFLT1_850_dewp_039.txt.gz
Dewpoint
7 7 8 8 8 7 7 6 6 5 6 6 5 5 5 4 4 3 5 5 5 1 5 8 8 7 7 6 5 3 3 2
6 6 7 8 8 7 7 7 7 7 6 4 4 4 5 4 5 7 5 8 6 4 7 8 8 7 7 6 4 4 3 1
7 7 7 6 5 5 4 4 3 3 2 3 2 3 3 3 5 6 5 6 7 7 7 8 8 8 8 6 6 4 3 2
8 8 6 4 4 3 4 3 2 2 4 3 4 6 6 5 2 2 6 8 6 6 9 8 8 8 7 6 6 5 4 2
8 8 7 4 3 3 2 3 3 2 5 5 5 6 7 5 1 3 7 7 6 7 7 7 7 8 8 7 6 5 4 1
7 7 7 7 6 4 4 4 3 5 6 6 5 4 6 6 5 5 6 8 7 7 7 8 8 9 8 7 6 5 4 4
5 6 7 7 8 8 7 5 6 6 6 7 8 8 8 7 5 5 8 8 9 8 8 9 9 9 8 8 7 7 6 6
5 6 7 7 7 8 8 8 8 7 8 7 6 7 9 8 5 5 6 9 8 8 7 7 7 9 9 8 7 6 7 7
4 4 5 6 6 7 8 8 8 8 8 8 8 7 8 9 6 6 8 9 7 8 8 7 7 9 9 8 7 7 7 6
4 4 4 4 5 6 6 7 7 8 9 9 8 8 8 8 8 7 6 7 5 5 8 7 7 8 8 7 8 7 7 5
3 3 4 4 4 4 5 6 5 6 6 7 9 9 9 9 8 8 7 5 6 6 8 7 8 8 8 8 8 7 5 3
2 3 3 4 3 4 5 6 8 7 9 8 8 8 8 9 9 9 8 8 8 8 9 9 8 8 7 8 8 6 4 3
-1 1 1 2 5 6 7 8 7 5 3 9 9 9 9 10 10 10 10 8 10 10 9 9 8 8 8 7 6 5 3 2
-0 -0 -2 -0 3 4 7 8 8 8 7 6 10 9 9 5 8 8 8 10 10 10 9 8 8 7 8 6 6 4 2 2
1 1 -1 -1 2 5 8 10 9 9 10 10 9 10 9 10 10 10 10 10 9 8 8 7 7 6 6 5 4 3 2 2
1 3 3 4 5 6 7 8 9 10 9 10 10 10 11 11 10 10 9 9 8 7 7 7 6 6 5 4 3 2 2 1
-3 2 6 6 7 8 8 9 9 9 9 9 10 11 11 10 9 9 7 7 6 6 6 6 5 5 4 3 2 1 0 -0
-1 4 6 7 7 8 9 10 10 10 10 10 10 9 9 8 5 4 5 5 5 5 5 4 4 3 2 -0 -1 -1 -2 -2
1 5 8 8 9 9 9 10 10 10 9 9 9 8 6 4 5 5 5 5 4 2 1 0 -1 -1 -2 -2 -2 -2 -2 -3

GFSFLT1_850_dewp_042.txt.gz
Dewpoint
7 8 8 9 9 9 9 8 6 6 6 7 5 3 1 1 1 1 3 4 4 3 4 5 7 7 7 7 6 5 4 2
7 8 8 8 8 8 8 8 7 7 6 6 5 3 1 1 1 1 3 5 4 5 4 3 6 7 7 7 7 6 5 3
7 6 7 7 8 7 8 8 7 6 4 4 3 2 2 2 2 2 2 4 5 8 7 5 7 8 8 7 7 7 4 3
7 5 6 7 7 7 6 6 6 5 4 4 4 5 4 4 2 2 3 6 6 8 8 7 7 7 8 8 8 7 5 4
7 5 3 3 4 6 6 6 7 6 6 6 5 5 4 3 3 3 5 6 6 6 7 8 7 8 8 8 8 7 6 5
7 6 4 1 1 2 3 6 6 3 2 3 3 3 3 3 3 3 4 5 2 7 8 6 6 8 8 8 8 7 6 5
7 6 6 4 1 1 1 2 2 3 4 3 2 2 2 2 2 2 1 -2 2 5 7 6 7 7 7 7 8 7 7 6
8 7 7 7 3 2 2 2 2 3 3 4 5 4 5 5 1 3 5 4 4 5 7 8 8 7 7 7 8 8 7 6
7 6 6 6 6 5 4 2 2 1 2 4 5 5 5 4 4 6 8 6 4 7 9 9 8 7 8 7 8 9 8 7
5 5 5 5 6 6 6 7 6 4 3 3 4 4 5 6 7 8 9 7 5 6 7 7 8 8 8 7 8 9 8 8
4 5 5 4 5 5 5 6 6 5 7 6 7 7 7 7 7 7 9 7 6 8 8 8 7 6 7 9 9 8 8 8
4 4 4 4 4 5 5 6 7 8 8 8 7 7 8 8 8 9 9 8 9 8 8 7 7 6 8 9 8 8 8 8
-1 2 4 4 4 5 6 6 6 6 7 8 9 10 10 10 10 9 9 10 9 4 6 8 8 9 9 8 8 8 7 7
0 1 2 3 4 4 5 5 5 6 9 9 8 7 6 9 8 8 8 10 9 5 6 10 9 8 8 8 8 7 6 5
0 1 1 2 3 3 5 5 5 6 8 8 7 6 3 6 9 9 8 8 9 9 9 9 8 8 7 7 6 5 5 3
-1 -1 -1 2 -0 1 3 4 6 7 7 7 8 7 6 8 9 9 9 9 10 9 9 8 7 6 5 5 5 5 4 3
-4 1 -0 1 1 1 1 5 7 9 8 9 9 9 9 8 8 10 10 9 9 8 7 7 6 5 6 5 4 4 3 2
-4 0 1 3 3 2 4 6 8 9 9 10 10 10 9 10 10 9 8 8 7 6 6 5 5 5 5 4 3 2 1 0
-4 -3 0 3 4 6 7 9 10 10 10 10 10 10 10 9 9 8 8 6 4 5 5 5 5 4 3 2 -0 -1 -1 -1

GFSFLT1_850_dewp_045.txt.gz
Dewpoint
8 8 8 9 9 9 9 9 9 9 8 6 3 6 6 6 3 5 4 6 1 4 4 4 4 6 7 7 6 6 5 4
9 7 9 8 8 8 8 9 8 8 6 6 7 5 8 5 3 4 4 6 5 6 5 3 3 6 5 7 7 7 6 5
8 7 8 8 9 8 8 8 8 7 5 6 6 5 5 4 2 2 2 2 1 3 4 4 4 6 7 7 7 7 5 5
8 7 5 7 7 8 8 8 8 7 6 6 5 6 4 3 2 2 1 2 2 4 5 6 8 7 7 7 7 7 7 7
7 7 5 3 5 7 7 8 7 7 7 7 6 6 5 2 1 1 1 1 1 3 6 7 8 8 7 8 8 8 8 8
7 7 5 1 2 4 6 6 7 7 7 6 5 5 5 4 2 1 -0 1 1 3 6 6 6 7 8 8 8 8 8 8
6 6 7 4 2 2 3 5 5 6 6 5 4 3 3 4 4 4 3 2 2 2 5 5 6 7 7 6 7 7 8 8
6 7 6 6 3 2 2 2 3 5 5 4 4 4 5 5 4 4 2 2 1 1 4 4 1 7 7 8 7 7 7 7
6 6 6 5 5 2 1 1 1 3 3 2 2 3 4 4 3 3 1 1 1 0 1 1 2 5 8 7 9 8 7 7
5 6 5 5 5 4 1 -1 -1 0 0 2 2 2 1 2 2 1 1 2 3 2 6 7 5 8 6 8 9 5 8 8
4 5 5 5 5 4 5 1 -0 -2 -1 0 1 2 2 2 1 2 4 5 4 5 8 9 8 7 9 9 7 7 7 9
4 3 4 4 5 5 5 5 4 2 2 1 1 1 3 4 4 5 5 6 7 8 9 9 7 8 9 9 9 8 8 9
3 4 4 5 5 6 6 5 5 5 5 5 4 4 4 5 6 6 7 8 8 7 8 9 3 6 7 8 9 8 9 8
-0 3 3 3 4 5 6 5 5 6 7 7 7 7 7 7 7 5 6 8 9 9 6 5 6 5 6 7 9 9 9 8
-3 -1 -1 1 2 2 4 4 4 5 7 8 8 8 8 8 8 8 8 9 9 6 8 4 5 5 6 9 8 8 7 6
-1 -0 -2 -2 -0 1 3 3 4 5 6 7 8 8 9 9 9 9 8 10 10 9 8 8 8 9 9 8 8 7 6 5
-1 0 -1 -1 -0 -1 -1 2 2 4 5 5 7 8 9 9 9 8 8 10 10 10 9 9 9 9 8 7 6 5 4 5
-4 -3 -1 0 -1 -1 -1 -0 -0 2 5 6 7 8 9 9 9 8 8 9 10 10 9 9 8 7 6 5 5 5 4 4
-3 -4 -4 -2 1 2 1 2 2 4 7 8 8 9 9 9 9 10 10 9 9 9 8 7 6 6 5 5 5 4 3 2

GFSFLT1_850_dewp_048.txt.gz
Dewpoint
8 7 8 8 9 10 9 10 10 9 7 9 8 8 7 3 5 3 2 2 3 3 4 5 4 5 6 6 6 5 4 3
8 7 8 9 9 9 9 10 10 9 7 9 8 5 4 3 2 6 5 4 4 6 5 4 5 5 5 6 7 6 6 6
9 9 7 8 8 8 9 9 9 9 7 9 8 5 5 3 5 7 5 6 5 6 3 4 4 4 5 5 7 7 7 7
8 9 7 8 8 8 8 8 8 9 9 9 8 6 5 3 7 6 4 3 1 5 5 5 4 5 6 6 6 7 7 7
7 8 8 5 7 8 8 8 8 8 8 8 7 5 4 4 6 4 4 3 2 4 4 4 2 5 8 8 8 8 8 7
6 6 7 6 5 6 7 7 8 8 7 6 6 5 6 4 6 3 2 2 2 2 3 3 3 5 7 8 8 7 7 8
7 6 6 7 5 6 6 7 7 8 7 7 6 6 5 5 4 3 3 2 2 1 2 2 2 4 5 6 6 7 7 8
6 7 7 7 6 3 4 5 6 7 7 7 7 6 6 5 4 3 3 2 1 1 1 0 1 3 4 6 4 6 8 8
3 4 6 5 6 5 1 1 3 5 5 5 5 6 5 5 5 4 4 4 3 2 2 1 1 2 4 4 2 6 9 9
2 4 5 5 5 5 4 1 -1 -0 2 3 3 4 5 4 4 3 4 5 3 3 2 1 1 2 4 7 7 6 7 8
2 4 4 4 4 4 5 4 2 -2 -1 1 2 1 2 3 4 4 5 4 3 2 1 1 2 4 5 7 9 7 6 7
1 2 3 4 5 4 4 4 4 3 -0 -1 0 1 1 1 1 0 1 1 0 1 2 2 4 6 7 9 9 7 6 9
-0 -0 1 3 4 5 4 4 4 4 4 1 0 -0 -0 1 2 2 3 4 3 2 3 5 6 6 8 8 9 7 7 8
-1 0 0 1 2 3 4 4 4 5 5 5 4 2 2 1 0 1 2 4 4 6 6 7 8 6 7 8 6 7 5 7
-5 -3 -3 -1 1 3 2 2 3 5 5 5 6 5 5 4 4 4 3 4 5 6 7 7 8 8 8 5 5 6 7 8
-5 -4 -5 -3 -1 1 0 -0 2 3 4 5 4 5 6 6 6 7 7 7 7 8 8 9 9 8 7 4 5 7 8 8
-5 -6 -5 -3 -3 -3 -2 -3 -1 1 2 2 3 5 6 7 8 8 8 8 8 9 10 9 10 9 10 9 7 9 8 7
-5 -5 -5 -3 -2 -3 -2 -3 -1 0 2 3 4 5 6 8 8 9 9 9 9 10 9 10 9 9 9 9 8 7 7 6
-3 -3 -4 -4 -4 -3 -2 -1 0 1 4 4 5 6 7 8 9 9 10 10 10 10 9 9 8 9 8 7 7 6 5 4

GFSFLT1_850_dewp_051.txt.gz
Dewpoint
7 7 8 9 9 9 10 9 9 9 8 8 9 8 7 5 5 5 4 4 4 4 4 4 5 5 5 6 6 3 -0 -1
6 7 7 8 9 9 9 9 9 9 9 9 8 7 7 6 5 6 5 3 3 3 4 4 4 4 5 6 6 6 5 4
8 8 6 8 8 9 9 9 9 9 9 8 7 6 6 6 4 5 7 3 3 3 3 4 5 5 5 5 6 6 6 6
8 8 7 5 8 8 8 9 9 9 9 7 6 7 8 8 6 7 5 3 3 3 4 6 6 4 4 4 4 4 7 7
6 7 7 5 5 8 8 8 9 9 9 9 8 8 7 6 4 3 4 5 5 4 5 6 4 4 4 4 6 6 7 7
6 5 5 7 4 6 7 8 8 9 9 8 8 8 5 4 3 2 2 4 3 4 3 5 5 3 5 5 5 5 7 8
7 6 5 6 5 4 6 7 7 8 9 8 9 8 6 5 5 3 3 7 4 4 4 3 3 3 4 5 6 4 6 7
6 7 6 6 7 4 4 6 6 8 8 8 8 8 7 5 4 3 3 5 4 4 3 3 3 2 2 2 4 5 5 6
4 3 6 6 6 6 2 3 5 6 6 7 7 7 7 6 5 4 4 5 3 3 2 2 2 2 2 1 1 3 4 5
1 4 4 6 6 5 4 1 1 3 3 5 6 6 6 6 6 5 5 4 5 4 3 3 2 2 1 2 1 1 3 5
1 3 3 4 5 5 5 4 2 -3 -1 1 2 3 5 6 6 5 5 4 4 4 4 3 3 3 2 3 2 2 4 6
0 2 2 3 4 6 5 5 5 2 -1 -2 0 1 2 2 2 2 1 2 2 2 2 3 3 3 3 3 2 2 7 7
-2 1 2 3 4 5 5 5 6 5 4 1 -1 -1 0 1 -0 0 1 2 2 3 2 1 1 2 2 1 1 5 8 7
-4 -2 -0 1 3 4 3 4 4 5 5 5 3 1 -0 -1 -1 -1 0 0 0 2 4 3 4 3 2 3 6 7 8 6
-5 -5 -4 -2 0 2 2 2 4 5 5 5 5 5 4 3 1 1 0 -0 1 1 2 3 4 5 5 6 8 8 9 7
-4 -5 -6 -5 -3 -1 1 2 2 4 5 5 4 5 5 5 4 3 2 2 2 2 1 2 3 4 5 6 8 9 9 9
-4 -4 -5 -5 -5 -4 -2 -3 -2 -0 1 1 3 4 5 5 6 6 6 5 4 4 4 5 6 6 7 8 9 9 9 7
-4 -3 -3 -5 -6 -6 -4 -5 -4 -2 -3 -1 1 3 3 4 5 7 7 7 8 8 7 8 8 9 9 9 9 9 8 8
-5 -6 -6 -4 -4 -4 -4 -3 -3 -2 -2 -2 0 2 2 4 6 7 8 9 9 9 9 9 9 9 9 9 8 8 7 7

GFSFLT1_850_dewp_057.txt.gz
Dewpoint
6 7 7 10 10 10 10 10 9 8 9 9 9 9 9 8 3 6 7 7 4 3 3 4 4 3 4 4 4 4 3 3
6 8 8 9 10 10 10 9 9 9 9 9 8 8 8 5 5 5 3 3 2 1 2 0 4 5 4 4 4 4 3 3
7 8 8 9 10 10 10 10 9 9 9 9 8 8 7 4 2 4 3 3 1 1 0 1 4 5 6 6 5 5 3 2
7 8 9 9 10 9 9 10 10 9 9 9 8 8 7 6 5 4 4 4 6 2 4 6 2 6 7 8 8 7 6 5
6 7 9 9 9 10 9 9 9 9 9 9 8 8 8 6 5 4 5 4 3 3 5 7 6 6 7 8 8 8 7 6
5 7 8 9 9 10 9 9 9 9 9 9 8 8 8 6 6 4 4 6 4 5 6 7 8 7 7 7 8 8 8 6
4 6 7 8 8 9 9 9 9 9 9 9 9 8 8 7 5 5 6 7 6 7 8 8 7 7 7 7 7 7 7 7
4 6 7 8 9 9 9 9 9 9 9 9 9 9 9 8 7 6 5 7 8 7 7 7 6 5 4 6 6 6 7 6
3 5 7 7 8 9 9 9 9 9 9 9 9 9 9 8 8 7 5 4 4 4 6 7 5 5 4 4 5 7 5 5
2 4 6 7 8 9 9 8 8 9 9 9 9 9 9 8 8 7 7 6 4 3 4 5 5 4 3 5 6 7 7 6
-0 3 4 7 8 8 9 8 7 8 9 9 9 9 9 8 7 7 7 6 5 6 3 4 4 4 5 5 5 5 6 6
-1 0 2 6 7 8 9 9 7 7 8 9 9 9 9 9 9 8 8 8 7 7 6 5 5 6 6 7 6 5 6 6
-2 0 3 5 7 8 9 9 8 7 7 8 9 9 9 9 9 9 9 9 8 8 7 6 6 6 7 7 7 7 7 7
-4 -2 3 5 6 7 8 9 9 8 7 8 8 8 9 9 8 9 9 9 9 8 8 8 7 7 7 7 7 7 7 7
-4 -4 -2 3 6 7 7 8 9 9 8 8 8 7 5 5 7 8 8 9 9 9 9 8 8 8 8 8 8 8 7 7
-1 -1 -2 -2 1 5 7 7 8 9 9 8 8 7 7 8 9 9 8 8 8 8 8 8 8 8 8 8 8 7 7 7
1 2 1 -0 -1 -1 4 6 7 8 9 9 8 9 9 9 9 9 9 8 9 8 8 8 8 8 8 7 7 7 7 7
3 4 3 3 2 1 1 4 7 8 8 9 9 9 9 9 9 9 9 8 9 8 8 8 8 8 8 7 7 7 8 8
3 4 4 4 3 3 2 0 3 6 7 8 8 9 9 9 9 9 9 9 9 8 9 8 8 8 8 8 8 8 8 8

GFSFLT1_850_dewp_060.txt.gz
Dewpoint
6 6 7 10 10 11 10 9 9 8 8 8 9 9 10 10 9 8 7 4 8 9 8 7 7 7 6 5 5 4 4 4
6 7 7 9 10 11 10 9 9 8 8 9 9 9 9 9 8 5 8 7 7 7 5 4 5 5 5 5 5 4 4 3
6 7 7 9 10 10 10 9 9 8 8 9 9 9 9 8 7 5 8 6 7 6 4 4 4 4 4 4 4 4 4 3
6 8 8 9 10 10 10 10 9 9 8 9 9 9 8 7 7 3 3 6 5 4 2 1 1 4 4 5 4 4 3 3
6 7 9 8 10 10 9 10 9 9 9 9 9 8 8 6 3 2 6 4 3 2 2 1 -1 -0 1 6 6 5 5 4
5 7 8 9 9 10 9 10 9 9 9 9 9 8 8 6 6 4 4 5 4 3 3 3 1 1 4 8 7 6 6 7
4 6 8 9 9 10 10 10 10 9 9 9 9 8 8 6 4 5 4 3 4 2 2 3 7 5 4 7 8 7 6 6
3 6 7 8 9 9 9 9 10 10 9 9 9 8 8 8 5 3 3 4 4 4 4 3 4 6 7 6 7 6 6 6
1 5 7 8 9 9 10 10 9 10 9 9 9 9 8 8 8 6 3 4 6 5 5 3 3 8 7 7 5 5 5 5
0 3 6 7 8 9 9 9 9 9 9 9 9 9 9 8 8 7 5 4 4 6 5 4 5 6 7 7 4 4 4 6
0 2 5 7 8 9 9 9 8 9 8 8 9 9 9 9 9 8 8 7 4 5 5 4 5 7 7 7 4 4 4 4
-2 0 2 6 7 8 9 9 9 8 9 8 9 9 10 9 9 9 8 8 7 7 6 5 5 7 7 7 7 6 4 5
-2 -1 2 3 6 8 9 9 9 8 8 8 7 6 9 9 8 8 8 8 7 6 6 6 5 4 4 4 6 6 6 6
-3 -2 1 4 5 7 8 9 9 8 8 8 8 7 6 6 7 8 8 8 8 8 7 6 7 5 4 4 5 6 6 7
-0 1 2 1 4 6 7 8 9 9 8 8 9 8 7 3 4 7 8 8 8 8 8 8 8 7 7 7 7 7 7 7
2 3 3 3 3 2 5 7 8 9 9 8 8 9 9 9 9 7 7 8 9 9 10 9 9 9 8 7 7 8 8 8
3 3 4 4 4 3 3 3 7 8 9 9 9 8 9 9 10 10 10 10 9 10 10 10 10 9 8 8 8 8 8 8
3 3 4 4 5 4 3 3 3 4 8 8 9 9 9 9 9 10 10 10 10 10 10 10 10 9 9 9 9 9 9 9
2 2 3 4 5 6 5 4 3 2 2 7 8 9 9 9 9 10 9 9 10 10 10 10 9 9 9 9 9 9 9 8